Regional Weather Roundup
Issued by NWS

Home | Current Version | Previous Version | Graphics & Text | Print | Product List | Glossary On
Versions: 1 2 3 4 5 6 7 8 9 10 11 12 13 14 15 16 17 18 19 20 21 22 23 24 25 26 27 28 29 30 31 32 33 34 35 36 37 38 39 40 41 42 43 44 45 46 47 48 49 50
000
ASUS43 KMKX 112111
RWRWI

WISCONSIN REGIONAL WEATHER ROUNDUP
NATIONAL WEATHER SERVICE MILWAUKEE/SULLIVAN WI
400 PM CDT FRI JUL 11 2014

NOTE: "FAIR" INDICATES FEW OR NO CLOUDS BELOW 12,000 FEET WITH NO
SIGNIFICANT WEATHER AND/OR OBSTRUCTIONS TO VISIBILITY.

WIZ001-002-006>008-014>016-023>028-112200-
NORTHWEST WISCONSIN

CITY           SKY/WX    TMP DP  RH WIND       PRES   REMARKS
SUPERIOR ARPT  CLOUDY    73  68  84 SW6       29.94R
ASHLAND        CLOUDY    73  64  73 SW13G18   29.96R
HAYWARD        CLOUDY    74  64  71 S16       29.98S
SIREN          CLOUDY    75  66  73 SW5       29.97R
RICE LAKE      CLOUDY    74  61  64 S15       30.01S
LADYSMITH      CLOUDY    74  62  66 S12G22    30.04S
EAU CLAIRE     CLOUDY    77  64  64 S14       30.00F
MENOMONIE      MOCLDY    75  65  69 S12       30.01S
NEW RICHMOND   CLOUDY    76  66  70 S9        29.99S
OSCEOLA        CLOUDY    78  67  69 SW12      29.99F HX  80
$$

WIZ003>005-009-010-017-018-112200-
NORTH CENTRAL WISCONSIN

CITY           SKY/WX    TMP DP  RH WIND       PRES   REMARKS
WOODRUFF       CLOUDY    73  60  63 SW14G20   30.04S
RHINELANDER    CLOUDY    73  59  61 SW12G20   30.06S
EAGLE RIVER    CLOUDY    72  56  57 SW10      30.04S
LAND O LAKES   CLOUDY    73  58  60 SW13G21   30.03F
PHILLIPS       PTSUNNY   74  61  63 SW18G25   30.02S
TOMAHAWK       CLOUDY    73  59  62 CALM      30.06R
MEDFORD        CLOUDY    74  61  62 SW17      30.07R
MERRILL        CLOUDY    74  58  58 SW13G18   30.06R
$$

WIZ029-030-035-036-043>047-112200-
CENTRAL WISCONSIN

CITY           SKY/WX    TMP DP  RH WIND       PRES   REMARKS
WAUSAU         CLOUDY    78  56  46 S14G22    30.05S
MOSINEE        MOSUNNY   75  57  53 S14G20    30.08S
MARSHFIELD     MOSUNNY   75  59  57 SW20G26   30.07S
STEVENS POINT  SUNNY     75  54  48 SW15      30.09R
WAUPACA        CLOUDY    79  55  44 S13       30.08S
WAUTOMA        MOSUNNY   78  57  48 S12       30.10R
WISC RAPIDS    MOSUNNY   77  55  46 S13       30.10R
CAMP DOUGLAS   NOT AVBL
$$

WIZ011>013-019>022-031-037>040-048>050-112200-
NORTHEAST WISCONSIN

CITY           SKY/WX    TMP DP  RH WIND       PRES   REMARKS
ANTIGO         PTSUNNY   74  58  56 SW18      30.08R
STURGEON BAY   MOSUNNY   72  57  60 S17       30.09S
GREEN BAY      MOSUNNY   80  56  43 SW14G25   30.06F HX  80
MANITOWOC      PTSUNNY   73  57  57 S20G28    30.10F
APPLETON       PTSUNNY   79  52  38 SW15G21   30.07F
CLINTONVILLE   CLOUDY    77  52  41 S13G21    30.06S
OSHKOSH        MOSUNNY   79  59  50 S12G21    30.06F HX  80
$$

WIZ032>034-041-042-053>061-112200-
SOUTHWEST WISCONSIN

CITY           SKY/WX    TMP DP  RH WIND       PRES   REMARKS
LA CROSSE      PTSUNNY   78  63  59 S15       30.02F HX  80
SPARTA         PTSUNNY   73  58  61 SE8       30.07S
VIROQUA        FAIR      75  62  63 S12G21    30.07S
BOSCOBEL       PTSUNNY   77  61  57 S9G17     30.07F
PRAIRIE DU CHI PTSUNNY   77  60  55 S12       30.05F
PLATTEVILLE    FAIR      75  63  66 S14       30.09F
$$

WIZ056-057-062-063-064-067-068-112200-
SOUTH CENTRAL WISCONSIN

CITY           SKY/WX    TMP DP  RH WIND       PRES   REMARKS
BARABOO/DELLS  CLOUDY    74  57  54 S8        30.11R
LONE ROCK      CLOUDY    77  63  61 S7        30.08S
WATERTOWN      CLOUDY    74  59  59 S6        30.09R
MADISON        CLOUDY    75  56  51 S13       30.09R
MIDDLETON      FAIR      76  53  44 S12G17    30.10R
MONROE         CLOUDY    73  59  60 S12       30.10R
JANESVILLE     CLOUDY    75  55  50 SE15      30.08F
$$

WIZ051-052-058>065-066-070>072-112200-
SOUTHEAST WISCONSIN

CITY           SKY/WX    TMP DP  RH WIND       PRES   REMARKS
MILWAUKEE      LGT RAIN  72  52  49 SE12      30.11F
WAUKESHA       MOSUNNY   73  54  49 S12       30.15S
MILWAUKEE/TIMM PTSUNNY   73  54  49 S12       30.09F
RACINE         CLOUDY    71  55  56 SE7       30.14F
BURLINGTON     CLOUDY    73  58  61 S5        30.10F
KENOSHA        CLOUDY    72  54  53 SE12      30.12F
FOND DU LAC    PTSUNNY   76  57  51 S15G22    30.07F
SHEBOYGAN      PTSUNNY   76  55  48 S16       30.11F
WEST BEND      PTSUNNY   77  54  44 SE8       30.09F
JUNEAU         CLOUDY    74  40  29 S12       30.10S
$$

LSZ147-162-112200-
LAKE SUPERIOR

STATION/POSITION TIME  TEMP    WIND        PRES    WAVE
                       AIR SEA DIR/SP/G            HT/PER
                 (UTC) (F)     (DEG/KT/KT) (MB)    (FT/S)
W MID LAKE BUOY  2050   48 38  210/  8/  8 1013.8R   1/ 4
PORT WING        2100          280/  7/ 23 1013.9
SAXON HARBOR     2000          210/ 11/ 19 1013.9R
$$

LMZ867-665-643>646-112200-
LAKE MICHIGAN

STATION/POSITION TIME  TEMP    WIND        PRES    WAVE
                       AIR SEA DIR/SP/G            HT/PER
                 (UTC) (F)     (DEG/KT/KT) (MB)    (FT/S)
N MID LAKE BUOY  2050   59 53  200/ 16/ 19 1018.4F   3/ 4
NORTHPORT PIER   2000   68     170/  7/ 14 1019.0F
KEWAUNEE LAKESHO 2000   54     180/ 11/ 12 1020.4F
SHEBOYGAN LAKESH 2100   65     180/ 16/ 16 1019.4F
PORT WASHINGTON  2000   64     200/  8/ 11 1021.0F
MILWAUKEE LAKESH 2000   64     150/ 17/ 19   N/A
S MID LAKE BUOY  2050   65 64  160/  4/  6 1021.0F   0
KENOSHA   LAKESH 2100   63     170/ 12/ 14   N/A
$$

TC  - TEMPERATURE IN CELSIUS
VSB - VISIBILITY IN STATUTE MILES
WCI - WIND CHILL INDEX
HX  - HEAT INDEX



USA.gov is the U.S. government's official web portal to all federal, state and local government web resources and services.